contact:dominique.lefevre@mio.osupytheas.fr, maurice.libes@osupytheas.fr, didier.mallarino@osupytheas.fr
Project:EMSO http://www.emso-fr.org/EMSO-France
Depth: 2436.0 m
Title:EMSO Ligure Ouest : Data MII capteur AQUADOPP
Date,Latitude,Longitude,X_East,Y_North,Z_Up,Amplitude_X,Amplitude_Y,Amplitude_Z,Batterie,SoundSpeed,Heading,Pitch,Roll,Pressure,TIS,Speed,Direction
, degrees North, degrees East, m.s-1, m.s-1,m.s-1, 1, 1, 1, Volt, m.s-1, degree, degree, degree, dbar, degree_C, m.s-1, degree
2020-11-18T00:04:03,42.805,6.029,-0.006,0.006,0.009,100.0,107.0,99.0,13.4,1505.3,327.0,-0.7,1.8,2470.484,13.32,0.008,315.0
2020-11-18T00:07:03,42.805,6.029,-0.008,0.003,-0.009,102.0,105.0,100.0,13.4,1505.3,325.3,-0.7,1.8,2470.48,13.33,0.008,290.6
2020-11-18T00:10:03,42.805,6.029,0.0,-0.012,0.06,102.0,107.0,98.0,13.3,1505.3,327.7,-0.7,1.8,2470.474,13.33,0.012,180.0
2020-11-18T00:13:03,42.805,6.029,0.0,0.012,0.013,103.0,107.0,99.0,13.4,1505.4,324.7,-0.7,1.8,2470.433,13.34,0.012,0.0
2020-11-18T00:16:03,42.805,6.029,0.007,0.0,0.029,101.0,107.0,98.0,13.4,1505.4,328.0,-0.7,1.8,2470.424,13.34,0.007,90.0
2020-11-18T00:19:03,42.805,6.029,0.003,0.0,0.037,100.0,107.0,99.0,13.4,1505.4,327.2,-0.7,1.8,2470.467,13.34,0.003,90.0
2020-11-18T00:22:03,42.805,6.029,-0.02,-0.014,-0.05,102.0,105.0,100.0,13.4,1505.4,324.8,-0.7,1.8,2470.444,13.34,0.024,235.0
2020-11-18T00:25:03,42.805,6.029,-0.05,0.013,-0.005,100.0,107.0,99.0,13.3,1505.4,327.1,-0.7,1.8,2470.446,13.34,0.051,284.6
2020-11-18T00:28:03,42.805,6.029,-0.007,0.004,-0.001,100.0,105.0,99.0,13.3,1505.4,326.0,-0.7,1.8,2470.423,13.34,0.008,299.7
2020-11-18T00:31:03,42.805,6.029,-0.048,-0.007,-0.045,102.0,106.0,98.0,13.4,1505.4,326.1,-0.7,1.8,2470.417,13.34,0.048,261.7
2020-11-18T00:34:03,42.805,6.029,-0.048,-0.001,-0.041,105.0,105.0,98.0,13.4,1505.4,324.4,-0.7,1.9,2470.422,13.34,0.048,268.8
2020-11-18T00:37:03,42.805,6.029,-0.032,-0.003,-0.023,100.0,105.0,100.0,13.4,1505.4,324.2,-0.7,1.8,2470.411,13.34,0.032,264.6
2020-11-18T00:40:03,42.805,6.029,-0.045,0.007,-0.051,101.0,105.0,101.0,13.4,1505.4,324.2,-0.7,1.9,2470.39,13.34,0.045,278.8
2020-11-18T00:43:03,42.805,6.029,-0.004,0.008,-0.008,101.0,105.0,99.0,13.4,1505.4,327.3,-0.7,1.8,2470.436,13.34,0.008,333.4
2020-11-18T00:46:03,42.805,6.029,-0.044,0.005,0.003,102.0,107.0,99.0,13.4,1505.4,328.5,-0.6,1.8,2470.416,13.34,0.044,276.5
2020-11-18T00:49:03,42.805,6.029,-0.028,0.003,-0.018,102.0,105.0,100.0,13.4,1505.4,323.2,-0.7,1.8,2470.348,13.34,0.028,276.1
2020-11-18T00:52:03,42.805,6.029,-0.025,0.008,-0.01,100.0,106.0,99.0,13.4,1505.4,325.2,-0.7,1.8,2470.409,13.34,0.026,287.7
2020-11-18T00:55:03,42.805,6.029,-0.052,-0.012,-0.039,100.0,105.0,100.0,13.3,1505.4,326.8,-0.7,1.8,2470.411,13.34,0.053,257.0
2020-11-18T00:58:03,42.805,6.029,-0.049,-0.011,-0.021,100.0,108.0,99.0,13.3,1505.4,324.7,-0.7,1.8,2470.431,13.34,0.05,257.3
2020-11-18T01:04:03,42.805,6.029,-0.052,0.008,-0.034,102.0,106.0,101.0,13.4,1505.3,327.5,-0.7,1.8,2470.463,13.32,0.052,278.7
2020-11-18T01:07:03,42.805,6.029,-0.01,-0.01,-0.003,103.0,106.0,99.0,13.4,1505.3,327.9,-0.7,1.8,2470.431,13.33,0.014,225.0
2020-11-18T01:10:03,42.805,6.029,-0.041,-0.013,-0.039,100.0,106.0,99.0,13.4,1505.3,327.2,-0.7,1.8,2470.427,13.33,0.043,252.4
2020-11-18T01:13:03,42.805,6.029,-0.009,-0.004,-0.007,100.0,106.0,100.0,13.3,1505.4,327.9,-0.7,1.8,2470.417,13.34,0.009,246.0
2020-11-18T01:16:03,42.805,6.029,-0.015,0.01,-0.025,101.0,105.0,100.0,13.3,1505.4,326.5,-0.7,1.8,2470.403,13.34,0.018,303.7
2020-11-18T01:19:03,42.805,6.029,-0.058,-0.004,-0.043,100.0,107.0,99.0,13.4,1505.4,324.9,-0.7,1.8,2470.406,13.34,0.058,266.1
2020-11-18T01:22:03,42.805,6.029,-0.044,0.0,-0.03,101.0,106.0,99.0,13.4,1505.4,323.2,-0.7,1.8,2470.437,13.34,0.044,270.0
2020-11-18T01:25:03,42.805,6.029,-0.045,-0.019,-0.009,100.0,106.0,99.0,13.4,1505.4,327.4,-0.7,1.8,2470.436,13.34,0.048,247.1
2020-11-18T01:28:03,42.805,6.029,-0.014,0.011,0.043,101.0,106.0,99.0,13.4,1505.4,326.7,-0.7,1.8,2470.389,13.34,0.017,308.2
2020-11-18T01:31:03,42.805,6.029,-0.056,0.0,-0.068,104.0,107.0,98.0,13.4,1505.4,324.5,-0.7,1.8,2470.403,13.34,0.056,270.0
2020-11-18T01:34:03,42.805,6.029,-0.001,-0.012,-0.022,102.0,106.0,99.0,13.3,1505.4,324.2,-0.7,1.8,2470.387,13.34,0.012,184.8
2020-11-18T01:37:03,42.805,6.029,0.002,0.002,0.017,100.0,106.0,99.0,13.4,1505.4,326.4,-0.7,1.8,2470.445,13.34,0.002,45.0
2020-11-18T01:40:03,42.805,6.029,-0.052,0.001,-0.045,101.0,108.0,100.0,13.4,1505.4,327.2,-0.7,1.8,2470.413,13.34,0.052,271.1
2020-11-18T01:43:03,42.805,6.029,-0.031,-0.004,-0.031,102.0,105.0,100.0,13.4,1505.4,324.6,-0.7,1.8,2470.398,13.34,0.031,262.7
2020-11-18T01:46:03,42.805,6.029,-0.01,-0.014,-0.023,102.0,105.0,100.0,13.4,1505.4,323.6,-0.7,1.8,2470.381,13.34,0.017,215.5
2020-11-18T01:49:03,42.805,6.029,-0.017,-0.018,-0.015,101.0,105.0,101.0,13.3,1505.4,325.8,-0.7,1.8,2470.374,13.34,0.024,223.4
2020-11-18T01:52:03,42.805,6.029,-0.001,0.008,0.036,101.0,105.0,99.0,13.4,1505.4,326.8,-0.7,1.8,2470.371,13.34,0.008,352.9
2020-11-18T01:55:03,42.805,6.029,0.023,0.003,0.026,101.0,104.0,99.0,13.4,1505.4,326.8,-0.7,1.8,2470.404,13.34,0.023,82.6
2020-11-18T01:58:03,42.805,6.029,0.036,0.014,0.073,102.0,105.0,98.0,13.4,1505.4,327.9,-0.7,1.8,2470.383,13.34,0.038,68.8
2020-11-18T02:04:03,42.805,6.029,0.001,-0.002,0.012,102.0,104.0,98.0,13.3,1505.3,323.5,-0.7,1.8,2470.414,13.33,0.002,153.4
2020-11-18T02:07:03,42.805,6.029,0.033,0.001,-0.01,103.0,104.0,99.0,13.4,1505.3,325.2,-0.7,1.8,2470.389,13.33,0.033,88.3
2020-11-18T02:10:03,42.805,6.029,0.036,0.0,0.061,101.0,106.0,98.0,13.4,1505.4,325.8,-0.7,1.8,2470.404,13.34,0.036,90.0
2020-11-18T02:13:03,42.805,6.029,0.051,-0.001,0.024,101.0,104.0,100.0,13.4,1505.4,325.6,-0.7,1.8,2470.348,13.34,0.051,91.1
2020-11-18T02:16:03,42.805,6.029,0.029,0.0,0.049,100.0,104.0,100.0,13.4,1505.4,325.0,-0.7,1.8,2470.403,13.34,0.028,90.0
2020-11-18T02:19:03,42.805,6.029,0.034,-0.001,0.029,101.0,104.0,99.0,13.3,1505.4,325.3,-0.7,1.8,2470.389,13.34,0.034,91.7
2020-11-18T02:22:03,42.805,6.029,0.018,-0.004,0.055,102.0,102.0,100.0,13.4,1505.4,324.5,-0.7,1.8,2470.397,13.35,0.018,102.5
2020-11-18T02:25:03,42.805,6.029,0.02,-0.003,0.008,103.0,104.0,99.0,13.4,1505.4,323.0,-0.7,1.8,2470.38,13.35,0.02,98.5
2020-11-18T02:28:03,42.805,6.029,0.065,-0.006,0.064,100.0,105.0,100.0,13.4,1505.4,325.6,-0.7,1.8,2470.409,13.35,0.065,95.3
2020-11-18T02:31:03,42.805,6.029,0.008,0.005,0.054,100.0,105.0,99.0,13.4,1505.4,324.2,-0.7,1.8,2470.362,13.35,0.009,58.0
2020-11-18T02:34:03,42.805,6.029,0.009,-0.005,0.025,100.0,105.0,99.0,13.3,1505.4,328.4,-0.7,1.8,2470.381,13.35,0.01,119.1
2020-11-18T02:37:03,42.805,6.029,0.011,-0.015,0.017,101.0,105.0,99.0,13.4,1505.4,323.8,-0.7,1.8,2470.397,13.35,0.018,143.7
2020-11-18T02:40:03,42.805,6.029,0.003,0.009,0.038,102.0,105.0,99.0,13.3,1505.4,326.5,-0.7,1.8,2470.381,13.35,0.009,18.4
2020-11-18T02:43:03,42.805,6.029,0.026,-0.01,0.032,100.0,105.0,99.0,13.3,1505.4,324.8,-0.7,1.8,2470.373,13.35,0.027,111.0
2020-11-18T02:46:03,42.805,6.029,0.055,-0.008,0.017,99.0,107.0,99.0,13.3,1505.4,327.9,-0.7,1.8,2470.39,13.35,0.055,98.3
2020-11-18T02:49:03,42.805,6.029,0.025,0.0,0.027,102.0,105.0,99.0,13.4,1505.4,324.5,-0.7,1.8,2470.34,13.34,0.025,90.0
2020-11-18T02:52:03,42.805,6.029,0.045,0.0,0.033,102.0,105.0,99.0,13.4,1505.4,325.4,-0.7,1.8,2470.407,13.34,0.045,90.0
2020-11-18T02:55:03,42.805,6.029,0.015,-0.011,0.013,99.0,106.0,101.0,13.3,1505.4,324.4,-0.7,1.8,2470.391,13.35,0.018,126.3
2020-11-18T02:58:03,42.805,6.029,0.067,-0.011,0.041,100.0,105.0,99.0,13.4,1505.4,324.8,-0.7,1.8,2470.385,13.35,0.067,99.3
2020-11-18T03:04:03,42.805,6.029,0.024,-0.005,0.081,103.0,104.0,101.0,13.4,1505.3,327.4,-0.7,1.8,2470.384,13.33,0.024,101.8
2020-11-18T03:07:03,42.805,6.029,0.04,0.005,0.052,99.0,106.0,100.0,13.4,1505.3,326.8,-0.8,1.8,2470.401,13.33,0.04,82.9
2020-11-18T03:10:03,42.805,6.029,0.033,0.01,0.015,101.0,105.0,98.0,13.4,1505.4,325.0,-0.7,1.8,2470.409,13.34,0.034,73.1
2020-11-18T03:13:03,42.805,6.029,0.018,-0.005,0.007,101.0,106.0,99.0,13.4,1505.4,323.6,-0.7,1.8,2470.363,13.34,0.018,105.5
2020-11-18T03:16:03,42.805,6.029,0.029,-0.024,0.037,100.0,105.0,98.0,13.4,1505.4,325.7,-0.7,1.8,2470.403,13.34,0.037,129.6
2020-11-18T03:19:03,42.805,6.029,0.021,0.0,0.033,100.0,105.0,99.0,13.4,1505.4,325.9,-0.7,1.9,2470.394,13.35,0.021,90.0
2020-11-18T03:22:03,42.805,6.029,0.012,0.019,0.021,101.0,104.0,101.0,13.3,1505.4,327.9,-0.7,1.8,2470.355,13.35,0.022,32.3
2020-11-18T03:25:03,42.805,6.029,0.05,-0.005,0.031,101.0,105.0,101.0,13.3,1505.4,324.6,-0.7,1.8,2470.39,13.35,0.05,95.7
2020-11-18T03:28:03,42.805,6.029,0.049,-0.023,0.038,99.0,106.0,101.0,13.4,1505.4,327.1,-0.8,1.8,2470.385,13.35,0.054,115.1
2020-11-18T03:31:03,42.805,6.029,0.037,0.019,0.084,101.0,105.0,100.0,13.3,1505.4,322.7,-0.7,1.8,2470.366,13.35,0.041,62.8
2020-11-18T03:34:03,42.805,6.029,0.021,-0.012,0.028,101.0,105.0,98.0,13.4,1505.4,324.5,-0.7,1.8,2470.386,13.35,0.024,119.7
2020-11-18T03:37:03,42.805,6.029,0.026,-0.023,0.025,101.0,106.0,99.0,13.3,1505.4,324.4,-0.7,1.9,2470.392,13.35,0.034,131.5
2020-11-18T03:40:03,42.805,6.029,0.07,-0.001,0.052,102.0,105.0,102.0,13.4,1505.4,326.9,-0.7,1.8,2470.36,13.35,0.07,90.8
2020-11-18T03:43:03,42.805,6.029,0.049,-0.005,0.065,100.0,104.0,98.0,13.3,1505.4,323.4,-0.7,1.8,2470.36,13.35,0.049,95.8
2020-11-18T03:46:03,42.805,6.029,0.047,-0.005,0.062,100.0,106.0,100.0,13.4,1505.4,325.7,-0.7,1.8,2470.356,13.35,0.047,96.1
2020-11-18T03:49:03,42.805,6.029,0.026,-0.011,0.019,101.0,107.0,99.0,13.4,1505.4,327.5,-0.7,1.8,2470.348,13.35,0.028,112.9
2020-11-18T03:52:03,42.805,6.029,0.077,-0.013,0.046,100.0,105.0,100.0,13.3,1505.4,325.3,-0.7,1.8,2470.393,13.35,0.078,99.6
2020-11-18T03:55:03,42.805,6.029,0.026,-0.018,-0.002,101.0,105.0,99.0,13.4,1505.4,327.1,-0.7,1.9,2470.391,13.35,0.031,124.7
2020-11-18T03:58:03,42.805,6.029,0.051,-0.028,0.025,99.0,105.0,103.0,13.4,1505.4,327.9,-0.7,1.8,2470.353,13.35,0.058,118.8
2020-11-18T04:04:03,42.805,6.029,0.035,-0.004,0.003,103.0,106.0,99.0,13.4,1505.3,326.1,-0.7,1.8,2470.43,13.33,0.035,96.5
2020-11-18T04:07:03,42.805,6.029,0.059,0.001,0.059,100.0,105.0,100.0,13.4,1505.4,325.0,-0.7,1.8,2470.433,13.34,0.059,89.0
2020-11-18T04:10:03,42.805,6.029,0.038,0.001,0.07,101.0,105.0,98.0,13.4,1505.4,323.9,-0.7,1.8,2470.395,13.34,0.038,88.5
2020-11-18T04:13:03,42.805,6.029,0.006,-0.019,0.05,103.0,111.0,99.0,13.4,1505.4,326.0,-0.7,1.8,2470.377,13.34,0.019,162.5
2020-11-18T04:16:03,42.805,6.029,0.064,-0.008,0.028,102.0,105.0,100.0,13.3,1505.4,325.2,-0.7,1.9,2470.348,13.34,0.064,97.1
2020-11-18T04:19:03,42.805,6.029,0.026,-0.002,0.023,101.0,104.0,99.0,13.4,1505.4,325.4,-0.7,1.8,2470.42,13.35,0.026,94.4
2020-11-18T04:22:03,42.805,6.029,0.051,0.003,0.033,105.0,106.0,99.0,13.4,1505.4,326.8,-0.7,1.8,2470.42,13.35,0.051,86.6
2020-11-18T04:25:03,42.805,6.029,0.063,0.004,0.048,101.0,105.0,99.0,13.4,1505.4,323.1,-0.7,1.9,2470.422,13.35,0.063,86.4
2020-11-18T04:28:03,42.805,6.029,0.05,-0.018,0.052,101.0,106.0,99.0,13.4,1505.4,326.0,-0.7,1.8,2470.428,13.35,0.053,109.8
2020-11-18T04:31:03,42.805,6.029,0.041,-0.021,0.03,102.0,106.0,98.0,13.3,1505.4,325.4,-0.7,1.8,2470.36,13.35,0.046,117.1
2020-11-18T04:34:03,42.805,6.029,0.056,-0.038,0.009,99.0,105.0,99.0,13.4,1505.4,326.2,-0.7,1.8,2470.415,13.34,0.067,124.2
2020-11-18T04:37:03,42.805,6.029,0.044,-0.031,0.046,102.0,106.0,101.0,13.4,1505.4,324.0,-0.7,1.8,2470.395,13.34,0.053,125.2
2020-11-18T04:40:03,42.805,6.029,0.027,-0.013,0.012,99.0,106.0,101.0,13.3,1505.4,324.3,-0.7,1.8,2470.379,13.34,0.029,115.7
2020-11-18T04:43:03,42.805,6.029,0.058,-0.004,0.035,102.0,107.0,98.0,13.4,1505.4,324.7,-0.7,1.8,2470.425,13.34,0.058,93.9
2020-11-18T04:46:03,42.805,6.029,0.027,0.005,0.053,101.0,104.0,100.0,13.4,1505.4,327.2,-0.7,1.8,2470.427,13.34,0.027,79.5
2020-11-18T04:52:03,42.805,6.029,0.024,0.012,0.043,99.0,107.0,99.0,13.4,1505.3,325.4,-0.7,1.8,2470.482,13.32,0.026,63.4
2020-11-18T04:55:03,42.805,6.029,0.038,-0.01,0.063,102.0,105.0,100.0,13.4,1505.3,323.8,-0.7,1.8,2470.43,13.33,0.039,104.7
2020-11-18T04:58:03,42.805,6.029,0.045,-0.006,0.036,100.0,106.0,99.0,13.3,1505.3,325.4,-0.8,1.8,2470.461,13.33,0.045,97.6
2020-11-18T05:04:03,42.805,6.029,0.036,-0.005,0.048,100.0,106.0,99.0,13.4,1505.3,324.3,-0.7,1.8,2470.47,13.31,0.036,97.9
2020-11-18T05:07:03,42.805,6.029,0.032,0.006,0.062,100.0,105.0,100.0,13.4,1505.3,323.6,-0.7,1.8,2470.429,13.32,0.032,79.4
2020-11-18T05:10:03,42.805,6.029,0.03,0.005,0.046,102.0,106.0,99.0,13.4,1505.3,325.6,-0.7,1.9,2470.47,13.32,0.03,80.5
2020-11-18T05:13:03,42.805,6.029,0.063,-0.008,0.059,100.0,106.0,100.0,13.4,1505.3,328.5,-0.7,1.8,2470.486,13.33,0.063,97.2
2020-11-18T05:16:03,42.805,6.029,0.035,-0.009,0.042,102.0,105.0,99.0,13.4,1505.3,327.9,-0.7,1.8,2470.433,13.33,0.036,104.4
2020-11-18T05:19:03,42.805,6.029,0.059,-0.01,0.041,101.0,105.0,99.0,13.4,1505.3,328.0,-0.7,1.8,2470.469,13.33,0.059,99.6
2020-11-18T05:22:03,42.805,6.029,0.039,-0.013,0.026,97.0,105.0,100.0,13.4,1505.3,327.5,-0.6,1.8,2470.449,13.33,0.041,108.4
2020-11-18T05:25:03,42.805,6.029,0.066,-0.032,0.049,101.0,104.0,99.0,13.4,1505.3,327.1,-0.7,1.8,2470.443,13.33,0.073,115.9
2020-11-18T05:28:03,42.805,6.029,0.058,-0.022,0.036,102.0,105.0,99.0,13.4,1505.3,325.1,-0.7,1.8,2470.482,13.33,0.062,110.8
2020-11-18T05:31:03,42.805,6.029,0.051,-0.027,0.063,100.0,105.0,99.0,13.4,1505.3,326.0,-0.7,1.8,2470.45,13.33,0.057,117.9
2020-11-18T05:34:03,42.805,6.029,0.031,-0.011,0.034,101.0,104.0,100.0,13.4,1505.3,322.9,-0.7,1.8,2470.455,13.33,0.032,109.5
2020-11-18T05:37:03,42.805,6.029,0.045,-0.012,0.071,101.0,104.0,99.0,13.4,1505.3,324.3,-0.7,1.8,2470.504,13.33,0.046,104.9
2020-11-18T05:40:03,42.805,6.029,0.049,-0.001,0.041,100.0,105.0,101.0,13.4,1505.3,324.4,-0.7,1.8,2470.441,13.33,0.049,91.2
2020-11-18T05:43:03,42.805,6.029,-0.006,0.0,0.023,101.0,105.0,100.0,13.4,1505.3,325.5,-0.7,1.8,2470.46,13.33,0.006,270.0
2020-11-18T05:46:03,42.805,6.029,-0.055,-0.021,-0.052,100.0,106.0,99.0,13.4,1505.3,326.5,-0.7,1.8,2470.493,13.33,0.058,249.1
2020-11-18T05:49:03,42.805,6.029,-0.068,-0.002,-0.036,100.0,105.0,99.0,13.3,1505.3,326.9,-0.7,1.8,2470.44,13.33,0.068,268.3
2020-11-18T05:52:03,42.805,6.029,-0.078,-0.018,-0.064,101.0,105.0,100.0,13.3,1505.3,323.2,-0.7,1.8,2470.487,13.33,0.08,257.0
2020-11-18T05:55:03,42.805,6.029,-0.051,-0.035,-0.075,101.0,107.0,100.0,13.4,1505.4,323.8,-0.7,1.8,2470.455,13.34,0.061,235.5
2020-11-18T05:58:03,42.805,6.029,-0.079,-0.036,-0.072,101.0,105.0,99.0,13.4,1505.3,323.0,-0.7,1.8,2470.48,13.33,0.086,245.5
2020-11-18T06:01:03,42.805,6.029,-0.068,-0.033,-0.07,101.0,106.0,98.0,13.4,1505.3,326.5,-0.7,1.8,2470.496,13.33,0.075,244.1
2020-11-18T06:04:03,42.805,6.029,-0.084,-0.017,-0.07,101.0,105.0,99.0,13.4,1505.3,324.6,-0.7,1.8,2470.465,13.33,0.085,258.6
2020-11-18T06:07:03,42.805,6.029,-0.076,-0.04,-0.07,100.0,105.0,100.0,13.4,1505.3,324.1,-0.7,1.8,2470.499,13.33,0.085,242.2
2020-11-18T06:10:03,42.805,6.029,-0.072,-0.026,-0.081,101.0,104.0,100.0,13.4,1505.3,326.1,-0.7,1.8,2470.504,13.33,0.076,250.1
2020-11-18T06:13:03,42.805,6.029,-0.013,-0.024,-0.042,102.0,105.0,100.0,13.3,1505.3,326.7,-0.7,1.8,2470.504,13.33,0.027,208.4
2020-11-18T06:16:03,42.805,6.029,-0.017,-0.019,0.002,100.0,105.0,102.0,13.4,1505.3,325.7,-0.7,1.8,2470.55,13.33,0.025,221.8
2020-11-18T06:19:03,42.805,6.029,0.01,0.002,0.025,102.0,106.0,99.0,13.4,1505.3,326.4,-0.7,1.8,2470.486,13.33,0.01,78.7
2020-11-18T06:22:03,42.805,6.029,0.04,-0.028,-0.002,101.0,105.0,100.0,13.4,1505.3,324.0,-0.7,1.9,2470.513,13.33,0.048,125.0
2020-11-18T06:25:03,42.805,6.029,-0.008,-0.011,0.01,100.0,105.0,99.0,13.4,1505.3,324.2,-0.7,1.8,2470.538,13.33,0.013,216.0
2020-11-18T06:28:03,42.805,6.029,0.012,-0.016,0.044,100.0,106.0,100.0,13.4,1505.3,323.8,-0.7,1.8,2470.535,13.33,0.02,143.1
2020-11-18T06:31:03,42.805,6.029,-0.008,-0.014,0.003,101.0,106.0,98.0,13.3,1505.3,328.1,-0.7,1.8,2470.547,13.33,0.016,209.7
2020-11-18T06:34:03,42.805,6.029,-0.038,-0.031,-0.054,102.0,104.0,101.0,13.4,1505.4,327.0,-0.7,1.8,2470.532,13.34,0.049,230.8
2020-11-18T06:37:03,42.805,6.029,-0.041,-0.014,-0.045,101.0,104.0,99.0,13.4,1505.4,326.7,-0.7,1.8,2470.533,13.34,0.043,251.1
2020-11-18T06:40:03,42.805,6.029,-0.04,-0.024,-0.01,100.0,105.0,99.0,13.3,1505.4,326.9,-0.7,1.8,2470.572,13.34,0.046,239.0
2020-11-18T06:43:03,42.805,6.029,-0.042,-0.021,-0.037,100.0,106.0,100.0,13.4,1505.4,325.3,-0.7,1.8,2470.537,13.34,0.046,243.4
2020-11-18T06:46:03,42.805,6.029,-0.049,-0.01,-0.046,100.0,105.0,99.0,13.4,1505.4,323.5,-0.7,1.8,2470.561,13.34,0.05,258.5
2020-11-18T06:49:03,42.805,6.029,0.0,-0.014,0.001,102.0,105.0,99.0,13.3,1505.3,327.6,-0.7,1.8,2470.542,13.33,0.014,180.0
2020-11-18T06:52:03,42.805,6.029,-0.018,-0.011,0.026,100.0,105.0,99.0,13.4,1505.3,326.0,-0.7,1.8,2470.545,13.33,0.021,238.6
2020-11-18T06:55:03,42.805,6.029,0.009,-0.013,-0.006,102.0,103.0,99.0,13.3,1505.3,325.0,-0.7,1.8,2470.545,13.33,0.015,145.3
2020-11-18T06:58:03,42.805,6.029,0.014,-0.018,0.013,101.0,104.0,100.0,13.4,1505.3,324.2,-0.7,1.9,2470.576,13.33,0.022,142.1
2020-11-18T07:04:03,42.805,6.029,-0.015,-0.03,-0.047,101.0,103.0,99.0,13.3,1505.3,324.6,-0.7,1.8,2470.644,13.31,0.033,206.6
2020-11-18T07:07:03,42.805,6.029,-0.068,-0.011,-0.046,101.0,105.0,99.0,13.4,1505.3,328.6,-0.7,1.9,2470.596,13.32,0.068,260.8
2020-11-18T07:10:03,42.805,6.029,-0.017,-0.027,-0.011,101.0,105.0,100.0,13.3,1505.3,323.8,-0.7,1.8,2470.61,13.32,0.031,212.2
2020-11-18T07:13:03,42.805,6.029,-0.029,-0.018,-0.043,101.0,105.0,101.0,13.4,1505.3,324.6,-0.7,1.8,2470.596,13.33,0.034,238.2
2020-11-18T07:16:03,42.805,6.029,-0.025,-0.009,-0.037,100.0,103.0,99.0,13.4,1505.3,326.1,-0.7,1.8,2470.59,13.33,0.026,250.2
2020-11-18T07:19:03,42.805,6.029,-0.007,-0.035,-0.02,100.0,104.0,100.0,13.4,1505.3,326.9,-0.7,1.8,2470.618,13.33,0.035,191.3
2020-11-18T07:22:03,42.805,6.029,-0.016,-0.018,-0.007,100.0,104.0,100.0,13.3,1505.3,322.8,-0.7,1.9,2470.603,13.33,0.024,221.6
2020-11-18T07:25:03,42.805,6.029,-0.015,-0.02,-0.033,100.0,104.0,99.0,13.4,1505.3,326.4,-0.7,1.8,2470.617,13.33,0.025,216.9
2020-11-18T07:28:03,42.805,6.029,0.01,-0.014,0.044,101.0,105.0,100.0,13.3,1505.3,325.3,-0.7,1.8,2470.629,13.33,0.017,144.5
2020-11-18T07:31:03,42.805,6.029,-0.01,-0.022,0.022,102.0,103.0,98.0,13.4,1505.3,324.5,-0.7,1.8,2470.626,13.33,0.024,204.4
2020-11-18T07:34:03,42.805,6.029,-0.02,-0.047,-0.038,101.0,103.0,99.0,13.3,1505.3,324.8,-0.7,1.8,2470.615,13.33,0.051,203.0
2020-11-18T07:37:03,42.805,6.029,0.004,-0.018,0.021,101.0,104.0,99.0,13.4,1505.3,327.5,-0.7,1.9,2470.616,13.33,0.018,167.5
2020-11-18T07:40:03,42.805,6.029,-0.007,-0.02,-0.031,100.0,104.0,100.0,13.3,1505.3,327.7,-0.7,1.8,2470.659,13.33,0.021,199.3
2020-11-18T07:43:03,42.805,6.029,0.034,-0.031,0.005,101.0,103.0,100.0,13.3,1505.3,323.7,-0.7,1.9,2470.638,13.33,0.046,132.4
2020-11-18T07:46:03,42.805,6.029,-0.026,-0.011,0.013,101.0,105.0,100.0,13.4,1505.3,323.4,-0.7,1.8,2470.655,13.33,0.028,247.1
2020-11-18T07:49:03,42.805,6.029,-0.006,-0.034,-0.039,100.0,105.0,100.0,13.4,1505.3,325.3,-0.7,1.8,2470.592,13.33,0.034,190.0
2020-11-18T07:52:03,42.805,6.029,-0.015,-0.035,-0.008,103.0,105.0,100.0,13.4,1505.3,326.2,-0.7,1.9,2470.617,13.33,0.038,203.2
2020-11-18T07:55:03,42.805,6.029,-0.046,-0.019,-0.015,101.0,105.0,100.0,13.3,1505.3,324.2,-0.7,1.8,2470.629,13.33,0.049,247.6
2020-11-18T07:58:03,42.805,6.029,0.001,-0.014,0.005,101.0,105.0,99.0,13.3,1505.3,324.5,-0.7,1.8,2470.646,13.33,0.014,175.9
2020-11-18T08:04:03,42.805,6.029,0.06,-0.019,0.126,101.0,105.0,101.0,13.4,1505.3,328.0,-0.7,1.8,2470.704,13.31,0.062,107.6
2020-11-18T08:07:03,42.805,6.029,-0.008,-0.025,-0.012,102.0,104.0,99.0,13.4,1505.3,325.9,-0.7,1.8,2470.633,13.31,0.026,197.7
2020-11-18T08:10:03,42.805,6.029,-0.013,-0.021,0.01,102.0,105.0,100.0,13.4,1505.3,324.2,-0.7,1.8,2470.679,13.32,0.024,211.8
2020-11-18T08:13:03,42.805,6.029,-0.024,-0.012,-0.003,102.0,104.0,99.0,13.4,1505.3,324.3,-0.7,1.8,2470.698,13.32,0.026,243.4
2020-11-18T08:16:03,42.805,6.029,-0.041,-0.03,-0.023,102.0,104.0,100.0,13.4,1505.3,324.0,-0.7,1.8,2470.674,13.32,0.05,233.8
2020-11-18T08:19:03,42.805,6.029,-0.033,-0.013,-0.008,100.0,103.0,100.0,13.4,1505.3,324.2,-0.7,1.8,2470.657,13.32,0.035,248.5
2020-11-18T08:22:03,42.805,6.029,-0.004,-0.016,0.031,103.0,102.0,100.0,13.4,1505.3,326.4,-0.7,1.8,2470.683,13.33,0.016,194.0
2020-11-18T08:25:03,42.805,6.029,-0.013,-0.018,0.003,100.0,105.0,99.0,13.4,1505.3,326.1,-0.6,1.8,2470.644,13.33,0.022,215.8
2020-11-18T08:28:03,42.805,6.029,-0.005,-0.014,0.036,101.0,103.0,100.0,13.4,1505.3,325.9,-0.7,1.8,2470.668,13.33,0.014,199.6
2020-11-18T08:34:03,42.805,6.029,0.001,-0.004,0.023,100.0,105.0,100.0,13.4,1505.3,324.3,-0.7,1.8,2470.731,13.31,0.004,166.0
2020-11-18T08:37:03,42.805,6.029,0.028,-0.002,0.049,101.0,103.0,100.0,13.4,1505.3,325.8,-0.7,1.8,2470.679,13.31,0.028,94.1
2020-11-18T08:40:03,42.805,6.029,0.042,0.0,0.054,101.0,103.0,99.0,13.4,1505.3,325.1,-0.7,1.9,2470.691,13.32,0.042,90.0
2020-11-18T08:43:03,42.805,6.029,0.013,-0.01,0.042,101.0,103.0,99.0,13.3,1505.3,326.0,-0.7,1.8,2470.708,13.32,0.016,127.6
2020-11-18T08:46:03,42.805,6.029,-0.016,-0.01,-0.02,101.0,102.0,100.0,13.4,1505.3,323.5,-0.7,1.8,2470.657,13.32,0.018,238.0
2020-11-18T08:49:03,42.805,6.029,-0.001,-0.021,0.012,101.0,103.0,99.0,13.3,1505.3,322.9,-0.7,1.8,2470.692,13.32,0.021,182.7
2020-11-18T08:52:03,42.805,6.029,0.002,-0.001,0.043,101.0,103.0,100.0,13.3,1505.3,322.8,-0.7,1.8,2470.671,13.33,0.002,116.6
2020-11-18T08:55:03,42.805,6.029,-0.025,-0.036,0.007,102.0,104.0,100.0,13.4,1505.3,322.9,-0.7,1.9,2470.644,13.33,0.043,214.8
2020-11-18T08:58:03,42.805,6.029,-0.028,-0.028,-0.041,101.0,104.0,100.0,13.3,1505.3,326.3,-0.7,1.8,2470.672,13.33,0.039,225.0
2020-11-18T09:04:03,42.805,6.029,-0.017,-0.011,-0.034,102.0,104.0,100.0,13.4,1505.3,324.7,-0.7,1.8,2470.739,13.31,0.02,237.1
2020-11-18T09:07:03,42.805,6.029,-0.033,-0.03,-0.008,102.0,104.0,100.0,13.4,1505.3,326.6,-0.7,1.8,2470.711,13.31,0.044,227.7
2020-11-18T09:10:03,42.805,6.029,-0.006,-0.026,-0.009,102.0,104.0,100.0,13.4,1505.3,322.8,-0.7,1.8,2470.714,13.32,0.026,193.0
2020-11-18T09:13:03,42.805,6.029,-0.01,-0.017,-0.01,103.0,104.0,99.0,13.4,1505.3,326.2,-0.7,1.8,2470.68,13.32,0.019,210.5
2020-11-18T09:16:03,42.805,6.029,0.025,-0.008,0.042,103.0,104.0,99.0,13.4,1505.3,324.4,-0.7,1.8,2470.695,13.33,0.026,107.7
2020-11-18T09:19:03,42.805,6.029,-0.039,-0.021,-0.062,102.0,105.0,102.0,13.4,1505.3,326.0,-0.7,1.8,2470.651,13.33,0.044,241.7
2020-11-18T09:22:03,42.805,6.029,0.0,-0.032,0.039,101.0,105.0,99.0,13.4,1505.3,325.7,-0.7,1.8,2470.703,13.33,0.032,180.0
2020-11-18T09:25:03,42.805,6.029,0.002,-0.008,-0.002,102.0,105.0,100.0,13.3,1505.3,324.5,-0.7,1.8,2470.725,13.33,0.008,166.0
2020-11-18T09:28:03,42.805,6.029,-0.027,-0.001,0.007,101.0,106.0,99.0,13.3,1505.3,327.8,-0.7,1.8,2470.676,13.33,0.027,267.9
2020-11-18T09:31:03,42.805,6.029,-0.04,-0.027,0.002,101.0,105.0,101.0,13.4,1505.3,323.4,-0.7,1.8,2470.69,13.33,0.048,236.0
2020-11-18T09:34:03,42.805,6.029,-0.04,-0.007,-0.021,101.0,103.0,100.0,13.3,1505.3,325.0,-0.7,1.8,2470.658,13.33,0.04,260.1
2020-11-18T09:37:03,42.805,6.029,-0.035,-0.009,0.006,101.0,103.0,100.0,13.4,1505.3,325.4,-0.7,1.8,2470.667,13.33,0.036,255.6
2020-11-18T09:40:03,42.805,6.029,-0.013,-0.016,0.003,101.0,105.0,100.0,13.3,1505.3,325.7,-0.7,1.8,2470.637,13.33,0.02,219.1
2020-11-18T09:43:03,42.805,6.029,-0.003,0.013,0.035,102.0,105.0,99.0,13.4,1505.3,324.2,-0.6,1.8,2470.657,13.33,0.013,347.0
2020-11-18T09:46:03,42.805,6.029,0.0,0.006,0.029,102.0,105.0,99.0,13.4,1505.3,327.1,-0.7,1.8,2470.667,13.33,0.006,0.0
2020-11-18T09:49:03,42.805,6.029,0.015,-0.011,0.037,102.0,104.0,100.0,13.3,1505.3,323.8,-0.7,1.8,2470.637,13.33,0.018,126.3
2020-11-18T09:52:03,42.805,6.029,0.0,-0.017,0.001,102.0,104.0,100.0,13.4,1505.3,324.3,-0.7,1.8,2470.698,13.33,0.017,180.0
2020-11-18T09:55:03,42.805,6.029,0.005,0.008,0.032,102.0,104.0,100.0,13.4,1505.3,326.5,-0.7,1.9,2470.66,13.33,0.009,32.0
2020-11-18T09:58:03,42.805,6.029,-0.037,-0.01,-0.003,101.0,104.0,100.0,13.4,1505.3,325.4,-0.7,1.9,2470.647,13.33,0.038,254.9
2020-11-18T10:04:03,42.805,6.029,-0.003,-0.007,-0.005,102.0,104.0,99.0,13.3,1505.3,325.8,-0.8,1.8,2470.724,13.31,0.007,203.2